Simultaneous Nadir Overpasses (SNOs) Predictions

Prediction of SNOs between GOES-15 and METOP-B Satellite Orbit:

Table of predicted SNOs for the next 14.0 days since TLE Epoch: 6/1/2018
Index Date Time (GOES-15) GOES-15 Lat,Lon METOP-B Lat,Lon Distance(km) Time Diff (sec)
1 06/03/2018 06:36:12 0.17,-134.84 -0.20,-136.42 181.04 80
2 06/04/2018 06:12:52 0.18,-134.80 0.95,-131.44 383.46 80
3 06/05/2018 18:34:23 -0.18,-134.78 0.10,-135.99 138.49 80
4 06/06/2018 18:11:03 -0.19,-134.73 -1.05,-131.00 425.60 80
5 06/08/2018 06:32:42 0.18,-134.62 -0.01,-135.59 110.55 80
6 06/09/2018 06:09:21 0.19,-134.57 1.08,-130.59 453.32 80
7 06/10/2018 18:30:51 -0.18,-134.54 -0.03,-135.15 69.61 80
8 06/11/2018 18:07:32 -0.19,-134.49 -1.18,-130.16 493.60 80
9 06/13/2018 06:29:09 0.17,-134.35 0.06,-134.73 44.13 80
10 06/15/2018 18:27:20 -0.18,-134.25 -0.16,-134.30 5.99 80




NCC Satellite Simultaneous Nadir Overpasses (SNOs) Prediction Service
